Location: Unspecified
(54.1780°N, 0.0000°E)
Time: 05:24:16
(UTC+00:00)

Transit 2A - Pass Details

Date: 25 June 2019
Orbit: 595 x 964 km, 66.7° (Epoch: 22 July)

Event Time Altitude Azimuth Distance (km) Brightness Sun altitude
Rises 07:24:15 0° 317° (NW) 3,523 9.1 30.6°
Reaches altitude 10° 07:26:52 10° 319° (NW) 2,531 8.4 31.0°
Maximum altitude 07:32:44 83° 47° (NE) 822 6.8 31.9°
Drops below altitude 10° 07:37:58 10° 136° (SE) 2,265 9.2 32.6°
Sets 07:40:13 0° 138° (SE) 3,129 9.8 32.9°
